Regional Weather Roundup
Issued by NWS Upton, NY

Current Version | Previous Version | Text Only | Print | Product List | Glossary On
Versions: 1 2 3 4 5 6 7 8 9 10 11 12 13 14 15 16 17 18 19 20 21 22 23 24 25 26 27 28
000
ASUS41 KOKX 261404
RWROKX

REGIONAL WEATHER ROUNDUP
NATIONAL WEATHER SERVICE NEW YORK NY
1000 AM EDT TUE JUL 26 2016

NOTE: "FAIR" INDICATES FEW OR NO CLOUDS BELOW 12,000 FEET WITH NO
SIGNIFICANT WEATHER AND/OR OBSTRUCTIONS TO VISIBILITY.

NYZ071-072-176-178-NJZ106-104-261500-
NEW YORK CITY METRO AREA

CITY           SKY/WX    TMP DP  RH WIND       PRES   REMARKS
Central Park   SUNNY     79  68  69 VRB6      29.94F
LaGuardia APRT MOSUNNY   83  68  60 N7        29.90F
Kennedy INTL   MOSUNNY   84  66  54 NW7       29.92S
Newark/Liberty MOSUNNY   84  68  58 W12       29.91F
Bronx Bot Gard   N/A     81  66  61 N3        29.94R
Wall St Helipt SUNNY     81  70  69 SW6       29.92S
Teterboro      SUNNY     82  68  62 W8        29.90F
$$

NYZ177-179-078>081-261500-
LONG ISLAND NEW YORK

CITY           SKY/WX    TMP DP  RH WIND       PRES   REMARKS
Farmingdale    SUNNY     83  68  60 NW7       29.91S
MacArthur/ISP  MOSUNNY   84  69  60 W7        29.89S
Shirley        SUNNY     84  68  58 NW8       29.90S
Riverhead      NOT AVBL
Westhampton    SUNNY     82  66  58 NW12      29.91S
Southhampton     N/A     81  72  74 N7        29.85S
Bridgehampton    N/A     77  72  83 S1        29.88S
East Hampton   FAIR      80  69  69 NW8       29.88S
Montauk          N/A     76  70  82 W10       29.89R
$$

NYZ052-065-067-261500-
HUDSON VALLEY

CITY           SKY/WX    TMP DP  RH WIND       PRES   REMARKS
White Plains   MOSUNNY   79  69  71 NW12      29.92S
Newburgh       MOSUNNY   79  72  78 NW12      29.94S
Montgomery     SUNNY     79  70  74 W8        29.92S
Poughkeepsie   SUNNY     81  68  64 W3        29.89F
Albany         MOSUNNY   79  63  57 NW17      29.89S
$$

NJZ001-105-106-008-010-013-015-019>022-104-261500-
NEW JERSEY

CITY           SKY/WX    TMP DP  RH WIND       PRES   REMARKS
Newark/Liberty MOSUNNY   84  68  58 W12       29.91F
Teterboro      SUNNY     82  68  62 W8        29.90F
Caldwell       SUNNY     80  68  66 W7        29.93S
Morristown     MOSUNNY   81  68  65 NW12      29.93F
Somerville     SUNNY     82  71  69 VRB3      29.92S
Linden         FAIR      82  66  58 NW8       29.94S
Sussex         MOSUNNY   78  70  76 VRB3      29.94S
Abdover          N/A     76  69  79 VRB5      29.96S
Trenton        SUNNY     81  70  69 NW8       29.94S
Millville      MOSUNNY   86  72  62 NW8       29.95S HX  92
Atlantic City  MOSUNNY   83  70  64 N9        29.94R
Wrightstown    SUNNY     81  72  73 NW7       29.92R
Toms River     MOSUNNY   82  71  69 NW8       29.94S
Belmar         SUNNY     82  70  66 NW7       29.94S
$$

PAZ047>061-062-071-261500-
EASTERN PENNSYLVANIA

CITY           SKY/WX    TMP DP  RH WIND       PRES   REMARKS
Philadelphia   PTSUNNY   84  70  62 N9        29.95S
Allentown      MOSUNNY   80  71  74 CALM      29.96S
Scranton       MOSUNNY   76  67  73 VRB3      29.98F
$$

CTZ002-004>006-009-010-012-RIZ004-006-007-MAZ004-011-015-261500-
SOUTHERN NEW ENGLAND
 IN CT

CITY           SKY/WX    TMP DP  RH WIND       PRES   REMARKS
Bradley INTL   MOSUNNY   86  62  44 W13       29.86S
Hartford       SUNNY     84  67  56 VRB6      29.86F
Danbury        MOSUNNY   78  69  73 W6        29.92S
Wtrbury/Oxford MOSUNNY   75  66  73 NW5       29.94R
Bridgeport     SUNNY     79  70  74 SW7       29.89S
Meriden        SUNNY     82  67  60 VRB7      29.89S
New Haven      MOSUNNY   78  70  76 VRB3      29.89S
Chester        FAIR      79  68  69 VRB6      29.90S
Groton         SUNNY     83  67  58 W10       29.86S
Wilimantic     NOT AVBL

 IN RI

CITY           SKY/WX    TMP DP  RH WIND       PRES   REMARKS
Providence     MOSUNNY   84  66  54 W12       29.84S
Block Island   SUNNY     76  69  79 W12       29.87F
Westerly       SUNNY     84  66  54 NW8       29.86F
 IN MA

CITY           SKY/WX    TMP DP  RH WIND       PRES   REMARKS
Boston         MOSUNNY   86  61  42 NW16G23   29.79F
Worchester     MOSUNNY   79  61  53 W15G23    29.87S
Westfield      PTSUNNY   85  60  42 NW14      29.86S
Provincetown   SUNNY     81  68  64 W12       29.80F
Nantucket      SUNNY     77  70  79 W13       29.83S
$$

ANZ330-335-338-340-345-350-353-355-261500-
COASTAL MARINE OBSERVATIONS


STATION/POSITION TIME  SKY/WX   TEMP    WIND        PRES    VSBY  WAVE
                                AIR SEA DIR/SP/G                  HT/PER
                 (UTC)          (F)     (DEG/KT/KT) (MB)    (MI)  (FT/S)
NY HARB ENTRANCE 1350            73 72  290/  8/ 10 1012.7          2/ 6
20S FIRE ISLAND  1250            74 74  310/ 14/ 16 1011.9          4/ 6
GREAT SOUTH BAY  1300            78 80  320/  8/ 10   N/A
23 SSW MONTAUK P 1250            70 67  260/  6/  8 1012.3          2/ 5
15 E BARNEGAT LI 1322               76                N/A           2/ 6
HUDSON CANYON    1250            77 77              1012.4          4/ 6
KINGS POINT      1300            75 72              1012.7
EXECUTION ROCKS  1300            79     290/  8/ 10   N/A
CENTRAL LI SOUND 1300            73 73  270/ 10/ 12   N/A           1/ 4
EASTERN LI SOUND 1300            73 67  260/ 10/ 12   N/A
ROBBINS REEF     1300            77     310/ 10/ 11 1012.4
$$


>>>>>>>>>>>>>>>>>>>>>>>>>>>> KEY <<<<<<<<<<<<<<<<<<<<<<<<<<<
>                                                          <
>     SKY/WX - Sky Condition/Present Weather               <
>     TMP    - Temperature in Fahrenheit                   <
>     DP     - Dew Point in Fahrenheit                     <
>     RH     - Relative Humidity in Percent                <
>     WIND   - Direction (from) and Speed in MPH           <
>     PRES   - Mean Sea Level Pressure (inches of Hg)      <
>     WCI    - Wind Chill Index                            <
>     VSB    - VISIBILITY IN MILES                         <
>     HX     - HEAT INDEX                                  <
>     TC     - TEMPERATURE IN CELSIUS                      <
>     VRB    - VARIABLE WIND DIRECTION                     <
>                                                          <
>>>>>>>>>>>>>>>>>>>>>>>>>>>> KEY <<<<<<<<<<<<<<<<<<<<<<<<<<<




USA.gov is the U.S. government's official web portal to all federal, state and local government web resources and services.